Thedford, NE

4:51 AM CST on December 03, 2016 (GMT -0600)
Thedford

Weather History for KTIF - July, 2012

Change the Weather History Date:

Saturday, July 21, 2012

  Actual Average (KLBF) Record (KLBF)
Temperature  
Mean Temperature 87 °F 75 °F  
Max Temperature 106 °F 89 °F 106 °F (2012)
Min Temperature 69 °F 61 °F 49 °F (1970)
Degree Days  
Heating Degree Days 0 0  
Month to date heating degree days 0  
Since 1 June heating degree days 51  
Since 1 July heating degree days 0  
Cooling Degree Days 22 10  
Month to date cooling degree days 196  
Year to date cooling degree days 362  
Since 1 June cooling degree days 334  
Growing Degree Days 37 (Base 50)    
Moisture  
Dew Point 50 °F    
Average Humidity 29    
Maximum Humidity 59    
Minimum Humidity 12    
Precipitation  
Precipitation 0.00 in 0.11 in 2.54 in (1998)
Month to date precipitation 2.05  
Year to date precipitation 12.91  
Snow  
Snow 0.00 in 0.00 in 0.00 in (2002)
Month to date snowfall 0.0  
Since 1 June snowfall 0.0  
Since 1 July snowfall 0.0  
Snow Depth -    
Sea Level Pressure  
Sea Level Pressure 30.02 in    
Wind  
Wind Speed 14 mph (South)    
Max Wind Speed 21 mph    
Max Gust Speed 30 mph    
Visibility 10 miles    
Events      
T = Trace of Precipitation, MM = Missing Value Source: NWS Daily Summary

Daily Weather History Graph

Daily Weather History Graph

Search for Another Location

Airport or City:

Trip Planner

Search our weather history database for the weather conditions in past years. The results will help you decide how hot, cold, wet, or windy it might be!

Date:

Astronomy

Jul. 21, 2012 Rise Set
Actual Time 6:25 AM CDT 9:11 PM CDT
Civil Twilight 5:53 AM CDT 9:43 PM CDT
Nautical Twilight 5:12 AM CDT 10:24 PM CDT
Astronomical Twilight 4:24 AM CDT 11:11 PM CDT
Moon 9:12 AM CDT (7/21) 10:19 PM CDT (7/21)
Length of Visible Light 15h 50m
Length of Day
14h 45m
Waxing Crescent, 7% of the Moon is Illuminated
Jul 21
Waxing Crescent
Jul 26
First Quarter
Aug 1
Full
Aug 9
Last Quarter
Aug 17
New

Hourly Weather History & Observations

Time (CDT) Temp. Heat Index Dew Point Humidity Pressure Visibility Wind Dir Wind Speed Gust Speed Precip Events Conditions
12:15 AM 79.2 °F - 60.4 °F 53% 30.07 in 10.0 mi SSE 12.7 mph - N/A   Clear
12:55 AM 79.0 °F - 58.5 °F 49% 30.07 in 10.0 mi SSE 13.8 mph - N/A   Clear
1:15 AM 78.8 °F - 57.6 °F 48% 30.07 in 10.0 mi South 13.8 mph 18.4 mph N/A   Clear
1:35 AM 79.3 °F - 56.3 °F 45% 30.07 in 10.0 mi South 15.0 mph - N/A   Clear
1:55 AM 79.7 °F - 55.6 °F 43% 30.07 in 10.0 mi South 17.3 mph 23.0 mph N/A   Clear
2:15 AM 79.7 °F - 55.4 °F 43% 30.07 in 10.0 mi South 16.1 mph - N/A   Clear
2:35 AM 79.0 °F - 54.7 °F 43% 30.07 in 10.0 mi South 16.1 mph - N/A   Clear
2:55 AM 78.6 °F - 54.1 °F 43% 30.07 in 10.0 mi South 15.0 mph - N/A   Clear
3:15 AM 77.9 °F - 54.0 °F 43% 30.07 in 10.0 mi South 13.8 mph 19.6 mph N/A   Clear
3:55 AM 77.0 °F - 53.6 °F 44% 30.06 in 10.0 mi South 12.7 mph 18.4 mph N/A   Clear
4:15 AM 76.5 °F - 53.6 °F 45% 30.06 in 10.0 mi South 11.5 mph 17.3 mph N/A   Clear
4:35 AM 75.4 °F - 53.6 °F 47% 30.07 in 10.0 mi South 8.1 mph - N/A   Clear
5:15 AM 74.3 °F - 53.6 °F 48% 30.07 in 10.0 mi South 9.2 mph - N/A   Clear
5:55 AM 72.9 °F - 53.6 °F 51% 30.07 in 10.0 mi SSE 3.5 mph - N/A   Clear
6:15 AM 72.3 °F - 53.6 °F 52% 30.07 in 10.0 mi Calm Calm - N/A   Clear
6:35 AM 72.3 °F - 53.4 °F 51% 30.08 in 10.0 mi Calm Calm - N/A   Clear
6:55 AM 69.3 °F - 54.1 °F 59% 30.08 in 10.0 mi Calm Calm - N/A   Clear
7:15 AM 73.0 °F - 53.8 °F 51% 30.07 in 10.0 mi South 5.8 mph - N/A   Clear
7:35 AM 75.2 °F - 52.9 °F 46% 30.07 in 10.0 mi South 9.2 mph - N/A   Clear
7:55 AM 76.1 °F - 52.3 °F 43% 30.08 in 10.0 mi SSW 10.4 mph 18.4 mph N/A   Clear
8:15 AM 77.4 °F - 52.5 °F 42% 30.08 in 10.0 mi SSW 10.4 mph - N/A   Clear
8:35 AM 79.3 °F - 52.3 °F 39% 30.07 in 10.0 mi South 16.1 mph - N/A   Clear
9:15 AM 83.3 °F - 52.0 °F 34% 30.05 in 10.0 mi SSW 16.1 mph 23.0 mph N/A   Clear
9:35 AM 84.4 °F - 51.8 °F 32% 30.05 in 10.0 mi SSW 18.4 mph 24.2 mph N/A   Clear
9:55 AM 86.7 °F - 51.8 °F 30% 30.05 in 10.0 mi SSW 17.3 mph - N/A   Clear
10:15 AM 88.9 °F - 51.1 °F 27% 30.05 in 10.0 mi SSW 19.6 mph - N/A   Clear
10:35 AM 90.9 °F - 51.1 °F 26% 30.05 in 10.0 mi SSW 17.3 mph - N/A   Clear
11:35 AM 97.7 °F - 49.3 °F 19% 30.04 in 10.0 mi SSW 12.7 mph 20.7 mph N/A   Clear
11:55 AM 99.7 °F - 49.5 °F 18% 30.04 in 10.0 mi South 15.0 mph 18.4 mph N/A   Clear
12:15 PM 101.3 °F - 46.8 °F 16% 30.04 in 10.0 mi SW 15.0 mph 25.3 mph N/A   Clear
12:35 PM 102.2 °F - 45.7 °F 15% 30.03 in 10.0 mi SSW 16.1 mph 23.0 mph N/A   Clear
12:55 PM 102.4 °F - 45.5 °F 15% 30.03 in 10.0 mi SSW 17.3 mph 23.0 mph N/A   Clear
1:15 PM 103.6 °F - 45.7 °F 14% 30.03 in 10.0 mi SSW 17.3 mph 25.3 mph N/A   Clear
1:35 PM 104.0 °F - 46.0 °F 14% 30.02 in 10.0 mi SSW 20.7 mph 26.5 mph N/A   Clear
1:55 PM 103.6 °F - 45.5 °F 14% 30.02 in 10.0 mi SSW 13.8 mph 24.2 mph N/A   Clear
2:15 PM 104.9 °F - 45.1 °F 13% 30.01 in 10.0 mi South 18.4 mph 29.9 mph N/A   Clear
2:35 PM 104.5 °F - 44.6 °F 13% 30.00 in 10.0 mi South 12.7 mph 26.5 mph N/A   Clear
2:55 PM 105.1 °F - 44.8 °F 13% 30.00 in 10.0 mi SSW 15.0 mph 20.7 mph N/A   Clear
3:15 PM 104.9 °F - 44.4 °F 13% 30.00 in 10.0 mi SSW 20.7 mph 25.3 mph N/A   Clear
3:35 PM 104.9 °F - 44.4 °F 13% 30.00 in 10.0 mi SW 18.4 mph 27.6 mph N/A   Clear
3:55 PM 105.4 °F - 45.1 °F 13% 29.98 in 10.0 mi South 18.4 mph 24.2 mph N/A   Clear
4:15 PM 104.9 °F - 44.6 °F 13% 29.99 in 10.0 mi SSW 16.1 mph 27.6 mph N/A   Clear
4:35 PM 105.6 °F - 43.9 °F 12% 29.98 in 10.0 mi SSW 18.4 mph 26.5 mph N/A   Clear
5:15 PM 104.5 °F - 44.1 °F 13% 29.97 in 10.0 mi South 16.1 mph 26.5 mph N/A   Clear
5:35 PM 104.4 °F - 42.1 °F 12% 29.97 in 10.0 mi SSW 20.7 mph 25.3 mph N/A   Clear
5:55 PM 104.4 °F - 41.7 °F 12% 29.96 in 10.0 mi SSW 17.3 mph 24.2 mph N/A   Clear
6:15 PM 104.5 °F - 41.9 °F 12% 29.96 in 10.0 mi SSW 20.7 mph 25.3 mph N/A   Clear
6:35 PM 104.0 °F - 42.1 °F 12% 29.95 in 10.0 mi SSW 20.7 mph 24.2 mph N/A   Clear
6:55 PM 103.6 °F - 40.5 °F 12% 29.94 in 10.0 mi SSW 17.3 mph 24.2 mph N/A   Clear
7:15 PM 103.1 °F - 45.0 °F 14% 29.94 in 10.0 mi South 17.3 mph 25.3 mph N/A   Clear
7:35 PM 101.7 °F - 46.0 °F 15% 29.93 in 10.0 mi South 15.0 mph 26.5 mph N/A   Clear
7:55 PM 100.9 °F - 44.6 °F 15% 29.93 in 10.0 mi South 17.3 mph 25.3 mph N/A   Clear
8:15 PM 99.9 °F - 44.4 °F 15% 29.93 in 10.0 mi South 18.4 mph 21.9 mph N/A   Clear
8:35 PM 97.5 °F - 52.3 °F 22% 29.93 in 10.0 mi SSE 16.1 mph 19.6 mph N/A   Clear
8:55 PM 95.0 °F 92.7 °F 54.5 °F 25% 29.94 in 10.0 mi South 13.8 mph - N/A   Clear
9:15 PM 93.0 °F 90.6 °F 53.6 °F 26% 29.95 in 10.0 mi SSE 12.7 mph - N/A   Clear
9:35 PM 91.9 °F 89.8 °F 54.1 °F 28% 29.95 in 10.0 mi SSE 15.0 mph 18.4 mph N/A   Clear
9:55 PM 91.0 °F 88.9 °F 54.3 °F 29% 29.96 in 10.0 mi South 15.0 mph - N/A   Clear
10:15 PM 90.7 °F 88.3 °F 53.6 °F 28% 29.96 in 10.0 mi South 15.0 mph 20.7 mph N/A   Clear
10:35 PM 90.7 °F - 52.9 °F 28% 29.97 in 10.0 mi South 19.6 mph - N/A   Clear
10:55 PM 90.3 °F - 52.2 °F 27% 29.97 in 10.0 mi South 16.1 mph 23.0 mph N/A   Clear
11:15 PM 89.6 °F - 52.0 °F 28% 29.98 in 10.0 mi South 17.3 mph 23.0 mph N/A   Clear
11:35 PM 88.7 °F - 51.8 °F 28% 29.98 in 10.0 mi South 17.3 mph - N/A   Clear
11:55 PM 87.8 °F - 51.8 °F 29% 29.98 in 10.0 mi South 15.0 mph - N/A   Clear